Wind_Speed
19 20 19 17 17 17 17 17 17 18 17 19 20 19 17 17 20 19 19 19 18 18 17 17 17 16 16 16 17 16 16 16 16 17 17 17 17 17 16 16 15 15 14 14
20 20 18 18 18 19 19 19 18 18 18 19 19 18 18 17 18 19 20 20 19 19 18 18 17 17 17 18 18 17 17 18 18 18 18 18 18 17 17 17 17 17 15 15
20 19 18 19 20 20 20 20 19 18 17 18 19 20 20 18 19 20 21 20 19 20 19 18 18 16 17 18 18 18 19 19 19 19 19 19 19 18 17 17 17 16 15 14
21 20 19 20 22 21 21 19 19 19 20 19 19 20 21 20 21 20 21 21 20 21 20 20 20 17 17 18 18 18 19 20 19 19 19 19 19 19 18 17 17 17 16 15
23 22 22 23 22 22 21 19 20 20 21 21 20 21 23 21 22 22 22 23 21 21 21 20 21 19 18 18 18 19 19 20 19 20 20 20 20 19 18 17 17 16 15 15
24 23 24 23 22 22 21 20 20 20 21 23 21 21 24 23 23 22 23 23 21 20 21 22 21 20 20 20 20 20 21 21 20 20 20 20 19 20 18 17 16 16 15 15
24 25 25 25 23 23 22 21 20 20 22 23 20 22 24 22 23 25 26 25 22 21 22 22 22 23 23 22 22 22 22 21 20 21 20 20 20 20 19 17 17 16 16 17
22 24 24 25 25 23 23 22 22 21 22 21 21 24 23 22 23 24 27 26 24 23 22 23 23 24 24 24 23 23 22 22 22 22 21 20 21 21 20 19 18 17 17 18
23 24 23 23 23 24 24 24 22 22 21 21 21 22 23 23 24 25 26 25 24 24 23 23 24 24 24 25 23 23 23 23 23 23 23 22 22 21 20 19 19 19 19 19
24 24 23 23 23 23 25 24 23 23 23 23 21 21 25 26 24 25 25 24 24 25 25 25 26 26 26 25 25 25 24 23 24 24 24 24 23 22 21 21 20 20 20 20
24 26 24 24 24 23 24 25 25 25 24 24 23 23 25 26 26 26 26 27 27 26 27 27 27 27 26 25 26 26 25 25 25 25 25 24 23 23 22 22 22 22 22 21
25 26 25 24 24 22 23 25 26 26 26 25 25 26 26 26 26 28 28 27 27 26 27 27 27 27 26 27 27 27 27 26 26 25 25 25 24 24 23 23 23 24 24 23
25 26 25 24 23 24 24 25 26 28 27 26 26 28 28 27 27 29 29 28 27 27 27 28 28 28 28 28 27 27 28 27 27 27 27 26 25 24 24 24 25 25 25 25
25 26 26 26 26 26 26 26 26 28 29 29 28 28 29 29 29 30 30 30 30 29 29 28 28 29 29 28 28 28 28 28 28 28 27 26 26 25 25 25 25 26 26 26
25 25 26 27 26 25 28 28 28 30 30 29 28 29 29 30 31 31 31 32 32 31 29 28 28 29 29 29 29 29 29 29 28 28 27 26 26 26 26 26 27 27 27 27
24 24 26 27 26 26 28 31 29 30 29 29 31 32 32 31 32 32 31 32 32 33 31 29 29 29 30 30 30 29 29 29 29 28 27 27 27 28 27 27 27 27 27 27
23 24 25 25 25 27 30 30 30 30 30 30 31 31 32 31 31 31 31 32 33 32 32 30 29 29 29 30 29 29 29 29 28 28 28 28 28 28 29 28 28 27 27 27
23 24 24 24 25 27 28 29 31 31 31 31 31 33 33 33 32 30 30 31 32 31 30 30 29 29 29 29 28 28 28 29 29 29 29 29 28 29 29 28 29 29 29 29
21 21 21 22 24 27 27 28 29 32 32 32 32 32 31 32 31 30 30 31 32 32 31 30 30 29 29 28 28 28 27 28 28 29 29 29 30 30 30 29 29 29 29 29
24 23 23 23 24 25 26 26 26 29 32 31 31 30 30 30 31 31 31 30 31 32 31 30 29 29 29 28 27 27 27 27 28 28 29 29 29 30 30 30 30 29 28 28
23 24 24 24 25 26 26 26 26 29 32 31 31 31 30 31 33 32 30 30 31 30 30 30 29 28 28 27 27 27 27 27 27 28 28 28 29 29 29 29 29 28 28 27
23 24 24 25 25 25 26 27 27 28 30 31 31 31 32 33 33 32 32 32 31 30 30 29 29 28 27 27 27 27 27 28 28 28 28 28 28 28 28 29 28 28 28 28
23 23 24 26 26 27 27 27 28 28 30 31 32 32 33 33 33 34 33 33 32 31 30 29 28 28 27 27 27 27 27 27 28 28 27 28 28 28 28 28 29 29 28 28
23 23 24 25 26 27 27 28 29 30 31 31 31 31 32 32 33 33 32 31 30 29 28 29 29 28 28 28 28 27 27 27 27 27 27 27 28 28 28 28 28 28 28 28
24 24 26 26 25 26 28 29 28 29 31 31 31 31 31 31 32 31 31 31 30 29 29 28 28 28 28 28 28 28 27 28 28 28 28 28 27 28 28 28 28 28 28 28
22 23 24 24 26 27 27 28 29 29 30 30 31 31 32 32 32 31 31 31 31 29 28 28 28 27 27 27 27 27 27 27 27 27 27 27 27 27 27 27 28 28 27 27
Wind_Direction
249 250 250 252 254 251 247 248 249 252 248 254 257 255 258 258 264 268 273 276 277 275 275 276 277 276 281 283 283 285 288 291 293 294 296 297 297 297 295 291 290 289 286 284
248 249 249 250 250 247 246 247 249 252 253 256 257 255 255 257 262 267 269 273 276 276 277 276 270 271 276 281 281 286 288 289 291 294 296 296 297 297 294 292 287 287 284 281
249 250 250 249 248 247 246 249 250 247 247 255 261 258 258 256 256 262 266 269 272 277 278 279 275 273 276 277 280 283 286 290 292 293 296 295 296 297 294 290 287 286 283 279
246 247 247 247 248 246 247 248 247 245 244 246 252 259 262 262 261 259 264 268 270 273 277 279 278 273 276 279 281 283 286 290 291 294 296 294 295 296 296 289 287 284 281 277
240 243 245 246 245 245 245 246 249 247 247 247 247 254 262 261 261 259 264 267 268 270 273 276 277 273 275 276 278 283 287 291 291 293 296 295 294 293 294 291 287 282 277 274
240 240 243 243 243 243 245 243 245 246 248 249 247 253 260 264 263 262 266 269 267 272 274 274 276 275 277 276 276 281 285 287 290 293 294 293 292 293 291 288 285 281 278 276
243 241 242 242 241 241 242 239 240 243 246 250 251 252 258 261 262 262 265 268 268 271 274 275 274 275 277 277 277 280 284 284 286 290 290 289 289 292 289 285 282 280 278 277
244 243 242 243 241 241 243 241 239 242 248 253 254 254 258 258 260 263 265 266 266 267 271 272 275 276 276 275 276 279 282 284 286 287 288 287 288 287 285 282 280 280 279 279
242 244 240 244 244 240 239 240 242 246 247 253 256 261 260 256 255 259 262 264 264 266 269 270 273 275 275 275 275 279 280 281 283 285 288 287 285 283 280 277 276 277 278 279
238 242 240 242 244 240 238 242 240 240 243 248 254 256 263 261 259 260 261 262 264 268 268 268 272 272 273 273 274 275 277 278 280 282 285 284 281 279 278 275 275 275 276 278
239 238 236 237 238 241 237 238 240 241 240 245 251 251 257 258 260 262 262 262 264 264 267 267 269 273 273 272 272 275 276 278 280 282 283 283 280 279 277 276 275 275 275 277
239 241 238 236 238 240 238 240 241 241 240 242 249 253 256 257 255 261 263 264 266 266 267 267 269 270 272 272 273 275 276 277 279 280 282 282 277 277 277 275 274 275 276 277
242 244 242 235 234 237 236 238 240 241 243 244 250 254 257 258 257 262 266 267 265 266 266 268 269 270 272 273 273 274 274 276 277 278 280 279 277 276 275 274 274 274 275 275
242 243 241 238 233 234 240 237 238 241 243 245 251 257 257 258 260 263 264 266 267 267 266 268 270 272 273 273 273 273 274 275 276 276 276 276 276 275 273 272 274 274 274 275
244 243 240 238 238 237 240 241 242 245 246 247 249 255 258 259 261 264 265 267 266 268 268 270 272 272 273 273 272 271 272 272 274 274 274 275 275 276 275 274 274 273 273 274
246 244 241 241 240 240 242 241 244 247 248 247 250 254 259 261 262 264 266 267 269 269 272 272 273 273 274 274 273 271 270 270 271 272 272 273 274 275 276 276 275 273 273 274
248 246 244 244 243 243 244 245 246 246 247 247 250 255 256 259 260 261 264 267 270 271 272 272 272 274 274 273 273 272 270 269 269 271 272 273 273 275 276 276 274 273 274 274
250 249 250 249 244 244 244 246 249 250 245 245 249 254 257 260 260 261 262 265 267 269 271 271 272 273 273 272 271 271 270 268 268 269 270 272 273 274 275 275 273 272 273 274
250 251 253 252 249 250 247 246 248 248 248 247 249 253 256 259 262 261 263 266 268 269 269 272 272 272 272 271 271 271 270 270 269 269 270 270 271 272 272 273 274 274 273 274
253 252 254 253 254 256 254 253 251 251 249 250 252 252 255 259 262 263 265 265 269 270 270 271 271 271 270 270 270 270 269 271 272 272 272 271 272 272 271 271 273 274 274 274
252 255 255 254 255 257 256 255 255 253 252 253 255 257 257 259 263 266 265 265 266 267 269 269 270 270 269 269 270 270 269 270 272 273 273 272 272 272 271 271 272 273 274 274
257 258 256 254 254 256 258 256 256 257 257 257 257 258 259 260 263 264 264 264 265 267 268 268 268 269 270 270 271 271 270 271 272 274 274 274 273 271 271 271 272 272 272 274
254 255 257 255 254 256 258 260 259 259 261 261 262 261 260 261 262 262 264 264 264 265 267 267 267 268 270 271 271 272 272 272 272 273 273 273 273 273 273 273 273 271 271 273
258 255 257 257 254 256 258 259 260 259 260 262 263 264 263 263 262 262 262 261 262 263 264 266 267 268 270 271 271 272 273 273 273 273 273 273 273 274 273 272 272 272 272 272
261 259 258 258 259 262 260 261 263 262 261 262 263 264 264 264 263 262 262 262 262 261 262 263 266 268 269 270 271 272 273 273 273 272 273 273 274 274 273 272 272 273 273 273
265 262 259 257 259 264 267 265 266 265 265 265 265 264 263 264 264 263 262 263 262 260 260 262 264 267 268 269 270 271 273 273 273 273 272 273 274 275 275 274 273 273 273 273
Height
5840 5842 5843 5846 5848 5850 5852 5854 5856 5858 5857 5859 5859 5859 5860 5860 5861 5861 5860 5859 5860 5860 5861 5860 5859 5859 5859 5859 5859 5858 5858 5857 5856 5856 5855 5854 5852 5851 5850 5849 5849 5848 5848 5848
5835 5837 5840 5841 5844 5846 5847 5849 5851 5853 5854 5855 5855 5855 5856 5856 5856 5856 5857 5857 5856 5856 5857 5856 5855 5856 5855 5855 5854 5854 5854 5854 5853 5852 5851 5850 5849 5848 5847 5846 5846 5844 5844 5844
5831 5834 5836 5837 5839 5841 5843 5845 5847 5849 5851 5851 5851 5852 5851 5852 5853 5853 5853 5853 5852 5852 5853 5852 5850 5851 5852 5852 5852 5850 5851 5850 5849 5848 5848 5846 5845 5844 5844 5843 5842 5841 5841 5841
5825 5829 5830 5833 5835 5837 5839 5841 5843 5845 5846 5847 5849 5847 5847 5847 5848 5848 5848 5849 5849 5849 5849 5848 5847 5847 5848 5848 5847 5846 5847 5847 5846 5845 5844 5843 5842 5841 5840 5839 5838 5838 5838 5838
5821 5824 5826 5828 5830 5832 5834 5837 5838 5839 5840 5841 5843 5844 5842 5842 5843 5844 5844 5845 5845 5844 5845 5845 5844 5843 5844 5844 5844 5843 5843 5843 5842 5841 5840 5839 5838 5837 5836 5835 5835 5834 5835 5835
5814 5817 5820 5822 5825 5827 5829 5831 5833 5834 5835 5836 5837 5839 5838 5838 5838 5838 5839 5840 5839 5840 5840 5840 5840 5839 5840 5840 5839 5840 5840 5839 5838 5837 5836 5835 5834 5833 5833 5832 5832 5832 5832 5832
5808 5811 5813 5816 5818 5821 5823 5825 5827 5829 5829 5830 5833 5834 5833 5834 5834 5834 5835 5835 5835 5835 5836 5835 5835 5835 5835 5835 5835 5835 5835 5834 5834 5833 5832 5831 5830 5829 5829 5828 5828 5828 5828 5828
5804 5806 5808 5810 5813 5816 5817 5820 5822 5824 5826 5828 5829 5828 5828 5828 5829 5829 5829 5829 5829 5830 5830 5830 5830 5830 5830 5830 5830 5830 5830 5830 5829 5828 5827 5827 5826 5825 5824 5824 5825 5824 5825 5825
5798 5799 5801 5804 5806 5809 5812 5814 5817 5820 5821 5823 5824 5823 5822 5822 5822 5824 5823 5823 5824 5824 5824 5825 5825 5824 5824 5824 5824 5824 5825 5825 5824 5824 5823 5822 5821 5821 5820 5820 5820 5820 5820 5820
5790 5793 5796 5798 5800 5802 5806 5809 5811 5813 5814 5816 5818 5819 5817 5814 5816 5817 5817 5817 5817 5818 5818 5818 5819 5819 5819 5819 5819 5819 5819 5819 5819 5818 5818 5817 5816 5816 5815 5815 5815 5816 5816 5816
5784 5786 5790 5793 5794 5797 5799 5802 5804 5806 5808 5810 5812 5814 5809 5808 5810 5811 5811 5811 5812 5812 5812 5812 5812 5812 5812 5813 5814 5813 5813 5813 5813 5812 5812 5811 5811 5810 5810 5810 5810 5810 5810 5810
5777 5779 5782 5786 5788 5790 5793 5795 5797 5799 5801 5803 5804 5807 5802 5801 5802 5804 5804 5804 5804 5805 5806 5805 5806 5806 5806 5807 5808 5807 5807 5807 5807 5806 5806 5805 5805 5804 5804 5804 5804 5804 5804 5804
5770 5773 5775 5779 5784 5785 5786 5788 5790 5792 5794 5796 5797 5799 5796 5795 5795 5796 5797 5798 5799 5798 5799 5799 5799 5799 5800 5800 5800 5800 5800 5800 5800 5800 5799 5799 5799 5798 5798 5798 5798 5798 5798 5798
5763 5765 5769 5772 5775 5777 5778 5781 5783 5784 5786 5788 5790 5790 5789 5788 5789 5790 5791 5791 5791 5792 5792 5792 5792 5792 5793 5793 5793 5793 5793 5793 5793 5793 5792 5792 5792 5791 5791 5791 5791 5791 5791 5791
5756 5759 5761 5764 5767 5770 5772 5774 5776 5777 5779 5780 5783 5782 5781 5781 5782 5783 5784 5784 5784 5783 5784 5784 5785 5785 5785 5785 5785 5785 5785 5785 5785 5785 5785 5785 5785 5784 5784 5784 5784 5783 5783 5783
5749 5752 5754 5757 5760 5762 5763 5766 5768 5770 5771 5773 5774 5774 5774 5774 5775 5776 5776 5776 5776 5776 5776 5777 5777 5777 5778 5777 5777 5777 5778 5778 5778 5778 5778 5778 5777 5777 5777 5777 5776 5776 5776 5776
5743 5745 5747 5750 5753 5754 5755 5758 5760 5762 5764 5765 5766 5767 5767 5766 5767 5768 5768 5768 5768 5768 5768 5769 5770 5770 5770 5770 5770 5770 5770 5770 5770 5770 5770 5770 5770 5769 5769 5769 5769 5769 5768 5768
5737 5738 5740 5742 5745 5746 5750 5752 5753 5754 5755 5757 5758 5758 5758 5759 5758 5758 5760 5760 5760 5760 5761 5761 5762 5762 5762 5762 5762 5762 5762 5762 5762 5762 5762 5762 5762 5761 5761 5761 5761 5761 5761 5760
5730 5732 5734 5736 5737 5738 5742 5743 5745 5746 5747 5748 5749 5749 5749 5749 5750 5750 5751 5752 5752 5752 5753 5754 5754 5755 5754 5754 5754 5754 5754 5753 5754 5754 5753 5753 5753 5753 5753 5753 5753 5753 5753 5752
5724 5726 5728 5729 5730 5731 5734 5735 5736 5738 5738 5739 5740 5740 5740 5741 5743 5744 5744 5744 5744 5745 5745 5746 5746 5746 5747 5747 5746 5746 5746 5746 5746 5745 5745 5745 5745 5745 5744 5744 5744 5745 5745 5744
5718 5719 5720 5722 5722 5723 5726 5727 5727 5729 5730 5731 5732 5732 5733 5734 5734 5735 5735 5736 5736 5737 5737 5738 5738 5738 5739 5739 5739 5738 5738 5738 5738 5737 5737 5737 5737 5736 5736 5736 5736 5736 5736 5736
5713 5714 5714 5715 5716 5719 5718 5719 5721 5721 5721 5722 5723 5724 5725 5726 5726 5727 5727 5728 5728 5728 5729 5730 5730 5731 5731 5731 5731 5731 5730 5730 5730 5730 5729 5729 5729 5728 5728 5728 5728 5728 5728 5728
5706 5707 5706 5708 5710 5709 5710 5711 5712 5713 5713 5714 5715 5716 5717 5717 5718 5719 5719 5719 5720 5720 5720 5721 5722 5723 5723 5723 5723 5723 5723 5722 5722 5722 5721 5721 5721 5720 5720 5720 5720 5720 5720 5720
5698 5699 5699 5699 5700 5701 5702 5703 5703 5704 5705 5705 5706 5706 5707 5708 5708 5709 5709 5710 5710 5711 5712 5713 5714 5715 5715 5715 5715 5715 5715 5715 5714 5714 5714 5713 5713 5713 5712 5712 5711 5711 5712 5712
5691 5692 5692 5692 5693 5693 5694 5695 5695 5695 5695 5696 5697 5697 5698 5698 5699 5700 5701 5701 5702 5703 5703 5704 5705 5706 5707 5707 5708 5708 5708 5707 5707 5706 5706 5706 5705 5705 5704 5704 5704 5704 5704 5703
5685 5685 5685 5685 5686 5686 5687 5687 5687 5687 5687 5688 5688 5688 5689 5689 5690 5691 5691 5692 5693 5694 5695 5696 5697 5698 5699 5699 5700 5700 5700 5699 5699 5699 5698 5698 5698 5697 5697 5696 5696 5696 5696 5695